Location: Davidschlag
(48.4333°N, 14.2833°E)
Time: 19:16:38
(UTC+00:00)

USA 238 DEB - Pass Details

Date: 27 February 2020
Orbit: 1020 x 1192 km, 63.4° (Epoch: 12 March)

Event Time Altitude Azimuth Distance (km) Brightness Sun altitude
Rises 18:07:45 0° 317° (NW) 3,916 7.4 -14.9°
Reaches altitude 10° 18:10:28 10° 322° (NW) 2,982 6.6 -15.3°
Maximum altitude 18:17:27 55° 40° (NE) 1,356 4.0 -16.5°
Enters shadow 18:21:52 24° 108° (ESE) 2,180 4.7 -17.2°
